West Chatham, MA

2:46 PM EST on February 24, 2017 (GMT -0500)
Chatham Municipal

Weather History for KCQX - March, 2014

Change the Weather History Date:

Monday, March 17, 2014

  Actual Average Record
Temperature  
Mean Temperature 24 °F -  
Max Temperature 28 °F 40 °F 57 °F (2003)
Min Temperature 17 °F 29 °F 17 °F (2014)
Degree Days  
Heating Degree Days 42    
Moisture  
Dew Point 12 °F    
Average Humidity 60    
Maximum Humidity 81    
Minimum Humidity 40    
Precipitation  
Precipitation 0.00 in - - ()
Sea Level Pressure  
Sea Level Pressure 30.11 in    
Wind  
Wind Speed 8 mph (NNE)    
Max Wind Speed 15 mph    
Max Gust Speed 22 mph    
Visibility 10 miles    
Events      
Averages and records for this station are not official NWS values.
T = Trace of Precipitation, MM = Missing Value Source: NWS Daily Summary

Daily Weather History Graph

Daily Weather History Graph

Search for Another Location

Airport or City:

Trip Planner

Search our weather history database for the weather conditions in past years. The results will help you decide how hot, cold, wet, or windy it might be!

Date:

Astronomy

Mar. 17, 2014 Rise Set
Actual Time 6:48 AM EDT 6:48 PM EDT
Civil Twilight 6:20 AM EDT 7:16 PM EDT
Nautical Twilight 5:48 AM EDT 7:48 PM EDT
Astronomical Twilight 5:15 AM EDT 8:21 PM EDT
Moon 8:03 PM EDT (3/17) 7:01 AM EDT (3/17)
Length of Visible Light 12h 55m
Length of Day
12h 00m
Full, 99% of the Moon is Illuminated
Mar 17
Full
Mar 23
Last Quarter
Mar 30
New
Apr 7
First Quarter
Apr 15
Full

Hourly Weather History & Observations

Time (EDT) Temp. Windchill Dew Point Humidity Pressure Visibility Wind Dir Wind Speed Gust Speed Precip Events Conditions
12:52 AM 30.0 °F 25.2 °F 8.1 °F 40% 30.14 in 10.0 mi North 4.6 mph - N/A   Overcast
1:52 AM 28.0 °F 19.3 °F 9.0 °F 45% 30.15 in 10.0 mi North 9.2 mph 17.3 mph N/A   Overcast
2:52 AM 27.0 °F - 8.1 °F 45% 30.15 in 10.0 mi North - - N/A   Overcast
3:52 AM 26.1 °F 16.8 °F 9.0 °F 49% 30.12 in 10.0 mi NNE 9.2 mph 18.4 mph N/A   Overcast
4:52 AM 24.1 °F 17.0 °F 7.0 °F 48% 30.13 in 10.0 mi Variable 5.8 mph 18.4 mph N/A   Overcast
5:52 AM 24.1 °F 16.0 °F 6.1 °F 46% 30.12 in 10.0 mi North 6.9 mph - N/A   Mostly Cloudy
6:52 AM 25.0 °F 14.8 °F 9.0 °F 51% 30.11 in 10.0 mi NNE 10.4 mph 18.4 mph N/A   Overcast
7:52 AM 26.1 °F 16.2 °F 12.0 °F 55% 30.12 in 10.0 mi NNE 10.4 mph - N/A   Overcast
8:52 AM 26.1 °F 15.0 °F 14.0 °F 60% 30.14 in 10.0 mi NE 12.7 mph 18.4 mph N/A   Overcast
9:32 AM 26.1 °F 14.5 °F 16.0 °F 66% 30.12 in 10.0 mi NE 13.8 mph 21.9 mph N/A   Overcast
9:52 AM 26.1 °F 15.6 °F 15.1 °F 63% 30.13 in 10.0 mi NE 11.5 mph 19.6 mph N/A   Overcast
10:52 AM 26.1 °F 14.0 °F 15.1 °F 63% 30.11 in 10.0 mi NE 15.0 mph 20.7 mph N/A   Overcast
11:52 AM 27.0 °F 15.2 °F 14.0 °F 58% 30.08 in 10.0 mi NE 15.0 mph 21.9 mph N/A   Overcast
12:52 PM 26.1 °F 14.5 °F 14.0 °F 60% 30.08 in 10.0 mi NNE 13.8 mph 20.7 mph N/A   Overcast
1:52 PM 27.0 °F 16.7 °F 14.0 °F 58% 30.07 in 10.0 mi NNE 11.5 mph 19.6 mph N/A   Overcast
2:52 PM 26.1 °F 16.8 °F 14.0 °F 60% 30.05 in 10.0 mi NNE 9.2 mph 21.9 mph N/A   Overcast
3:52 PM 25.0 °F 16.3 °F 14.0 °F 63% 30.07 in 10.0 mi NNE 8.1 mph 16.1 mph N/A   Overcast
4:28 PM 25.0 °F 16.3 °F 12.9 °F 60% 30.07 in 10.0 mi NNE 8.1 mph 19.6 mph N/A   Overcast
4:52 PM 25.0 °F 18.1 °F 14.0 °F 63% 30.08 in 10.0 mi North 5.8 mph - N/A   Overcast
5:35 PM 25.0 °F 15.5 °F 14.0 °F 63% 30.08 in 10.0 mi NNE 9.2 mph - N/A   Mostly Cloudy
5:45 PM 25.0 °F 17.1 °F 14.0 °F 63% 30.10 in 10.0 mi Variable 6.9 mph - N/A   Partly Cloudy
5:52 PM 25.0 °F 17.1 °F 12.9 °F 60% 30.10 in 10.0 mi NE 6.9 mph - N/A   Partly Cloudy
6:52 PM 24.1 °F 16.0 °F 14.0 °F 65% 30.11 in 10.0 mi NE 6.9 mph - N/A   Partly Cloudy
7:52 PM 23.0 °F - 12.9 °F 65% 30.12 in 10.0 mi Calm Calm - N/A   Clear
8:52 PM 19.9 °F - 12.9 °F 74% 30.13 in 10.0 mi Calm Calm - N/A   Clear
9:52 PM 18.0 °F 12.7 °F 12.9 °F 81% 30.14 in 10.0 mi NNW 3.5 mph - N/A   Clear
10:52 PM 17.1 °F - 12.0 °F 81% 30.16 in 10.0 mi Calm Calm - N/A   Clear
11:52 PM 17.1 °F 11.7 °F 12.0 °F 81% 30.18 in 10.0 mi NNW 3.5 mph - N/A   Clear